Location: Allison Elementary School
(34.0784°N, 117.7317°W)
Time: 12:47:56
(UTC+00:00)

Okean O Rocket - Pass Details

Date: 15 November 2019
Orbit: 622 x 645 km, 98.2° (Epoch: 13 December)

Event Time Altitude Azimuth Distance (km) Brightness Sun altitude
Rises 01:14:42 0° 190° (S) 2,928 5.4 -6.1°
Reaches altitude 10° 01:17:06 10° 201° (SSW) 2,020 4.8 -6.5°
Maximum altitude 01:20:59 30° 262° (W) 1,143 3.9 -7.3°
Drops below altitude 10° 01:24:51 10° 324° (NW) 2,019 4.5 -8.1°
Sets 01:27:16 0° 335° (NNW) 2,927 5.1 -8.5°
